Weather History for Galeao, Brazil

Change the Weather History Date:

Sunday, September 22, 2013

  Actual Average Record
Temperature  
Mean Temperature 80 °F -  
Max Temperature 87 °F 79 °F 93 °F (2004)
Min Temperature 74 °F 66 °F 60 °F (2002)
Cooling Degree Days 16    
Growing Degree Days 30 (Base 50)    
Moisture  
Dew Point 68 °F    
Average Humidity 69    
Maximum Humidity 83    
Minimum Humidity 51    
Precipitation  
Precipitation 0.00 in - - ()
Sea Level Pressure  
Sea Level Pressure 29.87 in    
Wind  
Wind Speed 7 mph ()    
Max Wind Speed 15 mph    
Max Gust Speed -    
Visibility 6.9 miles    
Events      
Averages and records for this station are not official NWS values.
T = Trace of Precipitation, MM = Missing Value Source: Averaged Metar Reports

Daily Weather History Graph

Daily Weather History Graph

Search for Another Location

Airport:

Trip Planner

Search our weather history database for the weather conditions in past years. The results will help you decide how hot, cold, wet, or windy it might be!

Date:

Astronomy

Sep. 22, 2013 Rise Set
Actual Time 5:42 AM BRT 5:49 PM BRT
Civil Twilight 5:20 AM BRT 6:11 PM BRT
Nautical Twilight 4:53 AM BRT 6:37 PM BRT
Astronomical Twilight 4:27 AM BRT 7:03 PM BRT
Moon 8:56 PM BRT (9/22) 7:39 AM BRT (9/22)
Length of Visible Light 12h 51m
Length of Day
12h 06m
Waning Gibbous, 89% of the Moon is Illuminated
Sep 22
Waning Gibbous
Sep 27
Last Quarter
Oct 4
New
Oct 11
First Quarter
Oct 18
Full

Hourly Weather History & Observations

Time (BRT) Temp. Heat Index Dew Point Humidity Pressure Visibility Wind Dir Wind Speed Gust Speed Precip Events Conditions
12:00 AM 78 °F - 68 °F 63% 29.81 in 12 mi ESE 2.3 mph - -  
12:00 AM 77.0 °F - 68.0 °F 74% 29.80 in - ESE 2.3 mph - N/A   Clear
1:00 AM 78.8 °F - 68.0 °F 69% 29.80 in - SE 2.3 mph - N/A   Clear
2:00 AM 77.0 °F - 68.0 °F 74% 29.80 in - SSW 4.6 mph - N/A   Clear
3:00 AM 80 °F - 65 °F 52% 29.81 in 12 mi SW 8.1 mph - -  
3:00 AM 80.6 °F 82.7 °F 66.2 °F 61% 29.80 in - SW 8.1 mph - N/A   Clear
4:00 AM 77.0 °F - 68.0 °F 74% 29.80 in - WSW 12.7 mph - N/A   Clear
5:00 AM 75.2 °F - 68.0 °F 78% 29.86 in - SW 15.0 mph - N/A   Clear
6:00 AM 74 °F - 67 °F 74% 29.89 in 7 mi SW 13.8 mph - -   Haze
6:00 AM 75.2 °F - 68.0 °F 78% 29.89 in 6.2 mi SW 13.8 mph - N/A   Partly Cloudy
7:00 AM 75.2 °F - 68.0 °F 78% 29.89 in 6.2 mi WSW 13.8 mph - N/A   Partly Cloudy
8:00 AM 77.0 °F - 68.0 °F 74% 29.92 in 6.2 mi WSW 12.7 mph - N/A   Partly Cloudy
9:00 AM 81 °F - 66 °F 52% 29.94 in 6 mi SW 9.2 mph - -   Haze
9:00 AM 80.6 °F 82.7 °F 66.2 °F 61% 29.92 in 6.2 mi SW 9.2 mph - N/A   Partly Cloudy
10:00 AM 82.4 °F 84.6 °F 66.2 °F 58% 29.95 in - SSE 6.9 mph - N/A   Clear
11:00 AM 84.2 °F 86.6 °F 66.2 °F 55% 29.92 in - East 6.9 mph - N/A   Clear
12:00 PM 86.0 °F 88.2 °F 66.2 °F 51% 29.92 in - NE 10.4 mph - N/A   Clear
1:00 PM 87.8 °F 91.4 °F 68.0 °F 52% 29.89 in - NNW 9.2 mph - N/A   Clear
2:00 PM 86.0 °F 89.4 °F 68.0 °F 55% 29.86 in - ESE 13.8 mph - N/A   Clear
3:00 PM 82.4 °F 85.4 °F 68.0 °F 62% 29.83 in - ESE 13.8 mph - N/A   Clear
4:00 PM 80.6 °F 83.9 °F 69.8 °F 70% 29.83 in 6.2 mi SE 11.5 mph - N/A   Partly Cloudy
5:00 PM 78.8 °F - 69.8 °F 74% 29.83 in 6.2 mi ESE 15.0 mph - N/A   Partly Cloudy
6:00 PM 77 °F - 70 °F 73% 29.88 in 6 mi ESE 10.4 mph - -   Haze
6:00 PM 77.0 °F - 69.8 °F 78% 29.86 in 6.2 mi ESE 10.4 mph - N/A   Partly Cloudy
7:00 PM 75.2 °F - 69.8 °F 83% 29.89 in 6.2 mi ESE 8.1 mph - N/A   Partly Cloudy
8:00 PM 75.2 °F - 69.8 °F 83% 29.89 in 6.2 mi East 5.8 mph - N/A   Partly Cloudy
9:00 PM 75 °F - 70 °F 79% 29.92 in 6 mi East 4.6 mph - -   Mist
9:00 PM 75.2 °F - 69.8 °F 83% 29.92 in 6.2 mi East 4.6 mph - N/A   Partly Cloudy
10:00 PM 75.2 °F - 69.8 °F 83% 29.92 in 6.2 mi East 5.8 mph - N/A   Partly Cloudy
11:00 PM 75.2 °F - 69.8 °F 83% 29.92 in 6.2 mi ESE 5.8 mph - N/A   Partly Cloudy